Huntington, WV

1:57 AM EDT on March 30, 2017 (GMT -0400)
Tri-State / Ferguson

Weather History for KHTS - September, 2013

Change the Weather History Date:

Monday, September 9, 2013

  Actual Average Record
Temperature  
Mean Temperature 77 °F 70 °F  
Max Temperature 89 °F 81 °F 100 °F (1939)
Min Temperature 65 °F 59 °F 42 °F (1986)
Degree Days  
Heating Degree Days 0 1  
Month to date heating degree days 0 2  
Since 1 July heating degree days 4 4  
Cooling Degree Days 12 6  
Month to date cooling degree days 66 62  
Year to date cooling degree days 1098 1039  
Growing Degree Days 26 (Base 50)    
Moisture  
Dew Point 67 °F    
Average Humidity 75    
Maximum Humidity 100    
Minimum Humidity 50    
Precipitation  
Precipitation 0.00 in 0.09 in 1.75 in (1916)
Month to date precipitation T 0.90  
Year to date precipitation 32.42 31.15  
Snow  
Snow 0.00 in - - ()
Month to date snowfall 0.0  
Since 1 September snowfall 0.0  
Snow Depth 0.00 in    
Sea Level Pressure  
Sea Level Pressure 30.04 in    
Wind  
Wind Speed 2 mph (South)    
Max Wind Speed 10 mph    
Max Gust Speed 13 mph    
Visibility 4 miles    
Events Fog    
T = Trace of Precipitation, MM = Missing Value Source: NWS Daily Summary

Daily Weather History Graph

Daily Weather History Graph

Search for Another Location

Airport or City:

Trip Planner

Search our weather history database for the weather conditions in past years. The results will help you decide how hot, cold, wet, or windy it might be!

Date:

Astronomy

Sep. 09, 2013 Rise Set
Actual Time 7:06 AM EDT 7:47 PM EDT
Civil Twilight 6:40 AM EDT 8:14 PM EDT
Nautical Twilight 6:08 AM EDT 8:45 PM EDT
Astronomical Twilight 5:36 AM EDT 9:17 PM EDT
Moon 11:23 AM EDT (9/9) 10:07 PM EDT (9/9)
Length of Visible Light 13h 33m
Length of Day
12h 40m
Waxing Crescent, 19% of the Moon is Illuminated
Sep 9
Waxing Crescent
Sep 12
First Quarter
Sep 19
Full
Sep 26
Last Quarter
Oct 4
New

Hourly Weather History & Observations

Time (EDT) Temp. Heat Index Dew Point Humidity Pressure Visibility Wind Dir Wind Speed Gust Speed Precip Events Conditions
12:51 AM 71.1 °F - 69.1 °F 93% 30.01 in 3.0 mi Calm Calm - N/A   Clear
1:51 AM 70.0 °F - 68.0 °F 93% 30.01 in 3.0 mi Calm Calm - N/A   Clear
2:51 AM 69.1 °F - 66.9 °F 93% 30.01 in 2.5 mi Calm Calm - N/A   Clear
2:58 AM 69.8 °F - 66.2 °F 88% 30.03 in 1.8 mi Calm Calm - N/A   Partly Cloudy
3:16 AM 68.0 °F - 66.2 °F 94% 30.03 in 0.8 mi Calm Calm - N/A   Mist
3:19 AM 68.0 °F - 66.2 °F 94% 30.03 in 0.2 mi Calm Calm - N/A Fog Fog
3:51 AM 66.9 °F - 66.0 °F 97% 30.01 in 0.2 mi Calm Calm - N/A Fog Fog
4:03 AM 66.2 °F - 66.2 °F 100% 30.03 in 0.5 mi Calm Calm - N/A Fog Fog
4:09 AM 66.2 °F - 64.4 °F 94% 30.04 in 0.2 mi Calm Calm - N/A Fog Fog
4:20 AM 66.2 °F - 64.4 °F 94% 30.04 in 0.5 mi Calm Calm - N/A Fog Fog
4:47 AM 66.2 °F - 66.2 °F 100% 30.04 in 1.5 mi Calm Calm - N/A   Mostly Cloudy
4:51 AM 66.9 °F - 66.0 °F 97% 30.01 in 1.5 mi Calm Calm - N/A   Overcast
5:04 AM 66.2 °F - 66.2 °F 100% 30.04 in 0.5 mi Calm Calm - N/A Fog Fog
5:14 AM 66.2 °F - 66.2 °F 100% 30.04 in 1.0 mi Calm Calm - N/A   Mist
5:34 AM 66.2 °F - 64.4 °F 94% 30.05 in 0.5 mi Calm Calm - N/A Fog Fog
5:51 AM 66.0 °F - 64.9 °F 96% 30.03 in 0.2 mi Calm Calm - N/A Fog Fog
5:58 AM 66.2 °F - 64.4 °F 94% 30.06 in 0.5 mi Calm Calm - N/A Fog Fog
6:08 AM 64.4 °F - 64.4 °F 100% 30.06 in 0.2 mi Calm Calm - N/A Fog Fog
6:16 AM 66.2 °F - 64.4 °F 94% 30.06 in 0.5 mi Calm Calm - N/A Fog Fog
6:38 AM 66.2 °F - 64.4 °F 94% 30.06 in 1.8 mi Calm Calm - N/A   Mostly Cloudy
6:51 AM 66.0 °F - 64.9 °F 96% 30.04 in 1.2 mi Calm Calm - N/A   Mostly Cloudy
7:03 AM 66.2 °F - 64.4 °F 94% 30.07 in 0.2 mi ESE 3.5 mph - N/A Fog Fog
7:51 AM 66.0 °F - 64.9 °F 96% 30.05 in 0.2 mi Calm Calm - N/A Fog Fog
8:51 AM 69.1 °F - 66.9 °F 93% 30.06 in 1.0 mi Calm Calm - N/A   Mist
9:10 AM 69.8 °F - 69.8 °F 100% 30.08 in 3.0 mi Calm Calm - N/A   Mist
9:51 AM 75.0 °F - 70.0 °F 84% 30.07 in 6.0 mi Calm Calm - N/A   Haze
10:51 AM 79.0 °F - 70.0 °F 74% 30.07 in 8.0 mi Variable 3.5 mph - N/A   Clear
11:51 AM 82.0 °F 85.9 °F 70.0 °F 67% 30.07 in 10.0 mi Variable 3.5 mph - N/A   Clear
12:51 PM 86.0 °F 89.4 °F 68.0 °F 55% 30.06 in 10.0 mi SSW 9.2 mph - N/A   Clear
1:51 PM 87.1 °F 90.6 °F 68.0 °F 53% 30.05 in 10.0 mi South 8.1 mph - N/A   Clear
2:51 PM 88.0 °F 90.7 °F 66.9 °F 49% 30.04 in 10.0 mi SSW 6.9 mph - N/A   Clear
3:51 PM 89.1 °F 92.9 °F 68.0 °F 50% 30.03 in 10.0 mi Variable 5.8 mph - N/A   Scattered Clouds
4:51 PM 88.0 °F 91.4 °F 68.0 °F 51% 30.01 in 10.0 mi South 6.9 mph - N/A   Partly Cloudy
5:51 PM 87.1 °F 91.3 °F 69.1 °F 55% 30.01 in 10.0 mi South 4.6 mph - N/A   Clear
6:51 PM 84.0 °F 88.4 °F 70.0 °F 63% 30.00 in 10.0 mi South 3.5 mph - N/A   Partly Cloudy
7:51 PM 81.0 °F 84.4 °F 70.0 °F 69% 30.01 in 10.0 mi Calm Calm - N/A   Clear
8:51 PM 78.1 °F - 70.0 °F 76% 30.04 in 9.0 mi Calm Calm - N/A   Clear
9:51 PM 75.9 °F - 71.1 °F 85% 30.05 in 7.0 mi Calm Calm - N/A   Clear
10:51 PM 73.0 °F - 71.1 °F 93% 30.05 in 7.0 mi Calm Calm - N/A   Clear
11:51 PM 73.0 °F - 71.1 °F 93% 30.06 in 7.0 mi Calm Calm - N/A   Clear